Missoula, Montana, United States (59801)
Lat: 46.87N, Lon: 113.99W
Wx Zone: MTZ005
Local Info
Past Weather Observations for Today

NOTE: This archive is for the closest National Weather Service station to Missoula. Information may differ from the station used for current weather conditions.

Click here for Long-term Archive

Time Weather Temperature Dewpoint Humidity Pressure Winds Precip Visibility
20:53
Clear
43°F / 6°C 37°F / 3°C 81% 29.77 in
(1008 mb)
Calm - 10SM
19:53
Partly Cloudy
46°F / 8°C 39°F / 4°C 76% 29.77 in
(1008 mb)
WNW 3.5 mph
(WNW 6 kph)
- 10SM
18:53
Clear
46°F / 8°C 41°F / 5°C 82% 29.77 in
(1008 mb)
NNW 5.8 mph
(NNW 9 kph)
- 10SM
17:53
Clear
54°F / 12°C 41°F / 5°C 63% 29.77 in
(1008 mb)
Calm - 10SM
15:53
Clear
59°F / 15°C 39°F / 4°C 48% 29.77 in
(1008 mb)
Variable 3.5 mph
(Variable 6 kph)
- 10SM
14:53
Clear
57°F / 14°C 41°F / 5°C 55% 29.77 in
(1008 mb)
Calm - 10SM
13:53
Clear
55°F / 13°C 39°F / 4°C 55% 29.77 in
(1008 mb)
WNW 3.5 mph
(WNW 6 kph)
- 10SM
12:53
Clear
52°F / 11°C 41°F / 5°C 67% 29.77 in
(1008 mb)
Calm - 10SM
11:53
Clear
50°F / 10°C 39°F / 4°C 67% 29.8 in
(1009 mb)
Calm - 10SM
10:53
Clear
43°F / 6°C 41°F / 5°C 93% 29.83 in
(1010 mb)
Calm - 10SM
10:37
Partly Cloudy
43°F / 6°C 41°F / 5°C 93% 29.83 in
(1010 mb)
Calm - 10SM
10:24
Mostly Cloudy
Fog And Mist
41°F / 5°C 39°F / 4°C 93% 29.83 in
(1010 mb)
Calm - 5SM
10:01
Mostly Cloudy
Fog And Mist
37°F / 3°C 37°F / 3°C 100% 29.83 in
(1010 mb)
SSW 3.5 mph
(SSW 6 kph)
- 1SM
09:53
Partly Cloudy
Fog And Mist
37°F / 3°C 37°F / 3°C 100% 29.83 in
(1010 mb)
Calm - 4SM
08:53
Partly Cloudy
Fog And Mist
36°F / 2°C 36°F / 2°C 100% 29.86 in
(1011 mb)
Calm - 6SM
08:07
Partly Cloudy
Fog And Mist
34°F / 1°C 34°F / 1°C 100% 29.83 in
(1010 mb)
N 3.5 mph
(N 6 kph)
- 6SM
08:00
Mostly Cloudy
34°F / 1°C 34°F / 1°C 100% 29.86 in
(1011 mb)
Calm - 7SM
07:53
Overcast
Fog And Mist
32°F / 0°C 32°F / 0°C 100% 29.86 in
(1011 mb)
Calm - 3/4SM
07:51
Overcast
Fog And Mist
32°F / 0°C 32°F / 0°C 100% 29.86 in
(1011 mb)
NNE 3.5 mph
(NNE 6 kph)
- 3/4SM
07:15
Overcast
Fog And Mist
32°F / 0°C 32°F / 0°C 100% 29.86 in
(1011 mb)
SSE 3.5 mph
(SSE 6 kph)
- 2SM
06:53
Partly Cloudy
32°F / 0°C 32°F / 0°C 100% 29.86 in
(1011 mb)
Calm - 7SM
06:40
Partly Cloudy
34°F / 1°C 34°F / 1°C 100% 29.86 in
(1011 mb)
Calm - 7SM
06:38
Obscured
Fog And Mist
34°F / 1°C 34°F / 1°C 100% 29.86 in
(1011 mb)
Calm - 1SM
06:16
Obscured
Fog
34°F / 1°C 34°F / 1°C 100% 29.89 in
(1012 mb)
Calm - 1/4SM
06:06
Obscured
Fog And Mist
34°F / 1°C 34°F / 1°C 100% 29.89 in
(1012 mb)
Calm - 3/4SM
06:03
Partly Cloudy
Fog And Mist
34°F / 1°C 34°F / 1°C 100% 29.89 in
(1012 mb)
NNW 3.5 mph
(NNW 6 kph)
- 1 1/4SM
06:01
Partly Cloudy
Fog And Mist
34°F / 1°C 34°F / 1°C 100% 29.89 in
(1012 mb)
Calm - 2SM
05:53
Clear
34°F / 1°C 34°F / 1°C 100% 29.89 in
(1012 mb)
Calm - 9SM
04:53
Partly Cloudy
36°F / 2°C 36°F / 2°C 100% 29.89 in
(1012 mb)
Calm - 10SM
04:26
Partly Cloudy
34°F / 1°C 34°F / 1°C 100% 29.89 in
(1012 mb)
Calm - 7SM
04:17
Clear
36°F / 2°C 36°F / 2°C 100% 29.89 in
(1012 mb)
Calm - 9SM
04:08
Clear
Fog And Mist
36°F / 2°C 36°F / 2°C 100% 29.89 in
(1012 mb)
Calm - 2 1/2SM
03:53
Clear
Fog And Mist
36°F / 2°C 36°F / 2°C 100% 29.92 in
(1013 mb)
Calm - 6SM
03:35
Partly Cloudy
Fog And Mist
36°F / 2°C 36°F / 2°C 100% 29.92 in
(1013 mb)
Calm - 3SM
03:32
Mostly Cloudy
Fog And Mist
36°F / 2°C 36°F / 2°C 100% 29.92 in
(1013 mb)
Calm - 1 1/2SM
03:29
Obscured
Fog And Mist
36°F / 2°C 36°F / 2°C 100% 29.92 in
(1013 mb)
NE 3.5 mph
(NE 6 kph)
- 3/4SM
03:18
Obscured
Fog
36°F / 2°C 36°F / 2°C 100% 29.92 in
(1013 mb)
Calm - 1/4SM
03:03
Obscured
Fog
36°F / 2°C 36°F / 2°C 100% 29.92 in
(1013 mb)
Calm - 1/2SM
02:56
Obscured
Fog And Mist
36°F / 2°C 36°F / 2°C 100% 29.92 in
(1013 mb)
Calm - 1SM
02:53
Partly Cloudy
Fog And Mist
36°F / 2°C 36°F / 2°C 100% 29.92 in
(1013 mb)
SW 4.6 mph
(SW 7 kph)
- 1 3/4SM
01:53
Clear
37°F / 3°C 37°F / 3°C 100% 29.95 in
(1014 mb)
NW 3.5 mph
(NW 6 kph)
- 10SM
00:53
Clear
37°F / 3°C 37°F / 3°C 100% 29.98 in
(1015 mb)
Calm - 9SM
Time Weather Temperature Dewpoint Humidity Pressure Winds Precip Visibility


Weather for websites

WeatherForYou.com, LLC is not responsible for any damages or problems caused by this service. Current weather conditions are obtained from the closest station including government and personal stations which may have varying degrees of accuracy. Weather forecasts are derived from the NOAA NDFD. Like all things, this site belongs to Jesus Christ... He just trusts me to maintain it. If you have any questions or comments email webmaster@weatherforyou.com

Copyright © 2014, WeatherForYou.com LLC. All rights reserved.